Weather History for KCWF - December, 2013

Change the Weather History Date:

Sunday, December 1, 2013

  Actual Average Record
Temperature  
Mean Temperature 54 °F -  
Max Temperature 69 °F 65 °F 82 °F (2011)
Min Temperature 38 °F 50 °F 33 °F (2008)
Degree Days  
Heating Degree Days 12    
Growing Degree Days 4 (Base 50)    
Moisture  
Dew Point 46 °F    
Average Humidity 86    
Maximum Humidity 100    
Minimum Humidity 43    
Precipitation  
Precipitation 0.00 in - - ()
Sea Level Pressure  
Sea Level Pressure 30.17 in    
Wind  
Wind Speed 2 mph (South)    
Max Wind Speed 8 mph    
Max Gust Speed -    
Visibility 10 miles    
Events      
Averages and records for this station are not official NWS values.
T = Trace of Precipitation, MM = Missing Value Source: NWS Daily Summary

Daily Weather History Graph

Daily Weather History Graph

Search for Another Location

Airport or City:

Trip Planner

Search our weather history database for the weather conditions in past years. The results will help you decide how hot, cold, wet, or windy it might be!

Date:

Astronomy

Dec. 01, 2013 Rise Set
Actual Time 6:51 AM CST 5:11 PM CST
Civil Twilight 6:25 AM CST 5:37 PM CST
Nautical Twilight 5:55 AM CST 6:07 PM CST
Astronomical Twilight 5:26 AM CST 6:36 PM CST
Moon 5:15 AM CST (12/1) 4:18 PM CST (12/1)
Length of Visible Light 11h 12m
Length of Day
10h 20m
Waning Crescent, 2% of the Moon is Illuminated
Dec 1
Waning Crescent
Dec 2
New
Dec 9
First Quarter
Dec 17
Full
Dec 25
Last Quarter

Hourly Weather History & Observations

Time (CST) Temp. Windchill Dew Point Humidity Pressure Visibility Wind Dir Wind Speed Gust Speed Precip Events Conditions
12:15 AM 41.7 °F 39.8 °F 38.7 °F 89% 30.27 in 10.0 mi NW 3.5 mph - N/A   Clear
12:35 AM 42.4 °F - 39.7 °F 90% 30.26 in 10.0 mi Calm Calm - N/A   Clear
12:55 AM 41.9 °F - 41.0 °F 97% 30.26 in 10.0 mi Calm Calm - N/A   Clear
1:15 AM 41.5 °F - 41.5 °F 100% 30.25 in 10.0 mi Calm Calm - N/A   Clear
1:35 AM 41.0 °F - 41.0 °F 100% 30.26 in 10.0 mi Calm Calm - N/A   Clear
1:55 AM 40.3 °F - 40.3 °F 100% 30.26 in 10.0 mi Calm Calm - N/A   Clear
2:15 AM 41.0 °F - 41.0 °F 100% 30.25 in 10.0 mi Calm Calm - N/A   Clear
2:35 AM 40.6 °F - 40.6 °F 100% 30.25 in 10.0 mi Calm Calm - N/A   Clear
2:55 AM 39.6 °F - 39.4 °F 99% 30.25 in 10.0 mi Calm Calm - N/A   Clear
3:15 AM 39.7 °F - 39.7 °F 100% 30.25 in 7.0 mi Calm Calm - N/A   Clear
3:35 AM 39.4 °F - 39.4 °F 100% 30.25 in 10.0 mi Calm Calm - N/A   Clear
3:55 AM 38.5 °F - 38.5 °F 100% 30.25 in 10.0 mi Calm Calm - N/A   Clear
4:15 AM 38.3 °F - 38.3 °F 100% 30.25 in 10.0 mi Calm Calm - N/A   Clear
4:35 AM 39.4 °F - 39.0 °F 99% 30.25 in 10.0 mi Calm Calm - N/A   Clear
4:55 AM 39.6 °F - 39.6 °F 100% 30.25 in 10.0 mi Calm Calm - N/A   Clear
5:15 AM 39.4 °F - 39.2 °F 99% 30.26 in 10.0 mi Calm Calm - N/A   Clear
5:35 AM 40.6 °F - 37.8 °F 89% 30.26 in 10.0 mi Calm Calm - N/A   Scattered Clouds
5:55 AM 40.3 °F - 40.3 °F 100% 30.26 in 10.0 mi Calm Calm - N/A   Overcast
6:00 AM 39.2 °F - 37.4 °F 93% 30.25 in 10.0 mi Calm Calm - N/A   Mostly Cloudy
6:50 AM 44.6 °F - 42.8 °F 93% 30.25 in 10.0 mi Calm Calm - N/A   Mostly Cloudy
7:50 AM 46.4 °F 45.2 °F 42.8 °F 87% 30.25 in 10.0 mi NNE 3.5 mph - N/A   Mostly Cloudy
8:50 AM 51.8 °F - 44.6 °F 76% 30.25 in 10.0 mi ESE 6.9 mph - N/A   Scattered Clouds
10:50 AM 64.4 °F - 46.4 °F 52% 30.23 in 10.0 mi SSW 3.5 mph - N/A   Mostly Cloudy
11:54 AM 68.0 °F - 44.6 °F 43% 30.20 in 10.0 mi South 4.6 mph - N/A   Scattered Clouds
12:55 PM 69.8 °F - 46.4 °F 43% 30.16 in 10.0 mi South 6.9 mph - N/A   Mostly Cloudy
1:50 PM 69.8 °F - 46.4 °F 43% 30.13 in 10.0 mi South 8.1 mph - N/A   Mostly Cloudy
2:50 PM 69.8 °F - 48.2 °F 46% 30.10 in 10.0 mi SSW 8.1 mph - N/A   Clear
3:50 PM 69.8 °F - 48.2 °F 46% 30.07 in 10.0 mi SW 8.1 mph - N/A   Clear
4:55 PM 64.4 °F - 48.2 °F 56% 30.08 in 10.0 mi SW 6.9 mph - N/A   Scattered Clouds
5:50 PM 62.6 °F - 51.8 °F 68% 30.07 in 10.0 mi SSW 3.5 mph - N/A   Clear
6:50 PM 57.2 °F - 53.6 °F 88% 30.06 in 10.0 mi SSE 3.5 mph - N/A   Scattered Clouds
7:50 PM 57.2 °F - 55.4 °F 94% 30.06 in 10.0 mi Calm Calm - N/A   Overcast
8:50 PM 59.0 °F - 55.4 °F 88% 30.05 in 10.0 mi South 4.6 mph - N/A   Overcast
9:50 PM 60.8 °F - 55.4 °F 82% 30.04 in 10.0 mi Calm Calm - N/A   Overcast
9:55 PM 58.8 °F - 58.3 °F 98% 30.04 in 10.0 mi South 4.6 mph - N/A   Overcast
10:15 PM 59.7 °F - 56.7 °F 90% 30.05 in 10.0 mi South 4.6 mph - N/A   Overcast
10:35 PM 59.5 °F - 57.0 °F 91% 30.03 in 10.0 mi South 4.6 mph - N/A   Overcast
10:55 PM 58.6 °F - 58.6 °F 100% 30.01 in 10.0 mi SSE 6.9 mph - N/A   Scattered Clouds
11:15 PM 59.0 °F - 59.0 °F 100% 30.00 in 10.0 mi South 5.8 mph - N/A   Mostly Cloudy
11:35 PM 60.3 °F - 57.2 °F 90% 30.00 in 10.0 mi South 5.8 mph - N/A   Overcast
11:55 PM 60.4 °F - 56.8 °F 88% 30.00 in 10.0 mi SSW 3.5 mph - N/A   Mostly Cloudy